This is the latest recevied weather packets stored in our database for station/object N4QD-13. If no packets are shown the sender has not sent any weather packets the latest 10 day(s).
| Time | Temp. | Humidity | Pressure | Rain* | Wind** | Luminosity | Snow |
|---|---|---|---|---|---|---|---|
| 1777872007 | 7.78° C | 82% | 1017.2 hPa | 0 mm | - | 0 W/m² | - |
| 1777871703 | 7.78° C | 83% | 1017 hPa | 0 mm | - | 0 W/m² | - |
| 1777871399 | 7.78° C | 83% | 1017.2 hPa | 0 mm | - | 0 W/m² | - |
| 1777871096 | 7.78° C | 83% | 1017.3 hPa | 0 mm | - | 0 W/m² | - |
| 1777870793 | 7.78° C | 82% | 1017.4 hPa | 0 mm | - | 0 W/m² | - |
| 1777870489 | 7.22° C | 83% | 1017 hPa | 0 mm | - | 0 W/m² | - |
| 1777870185 | 7.22° C | 83% | 1017.2 hPa | 0 mm | - | 0 W/m² | - |
| 1777869883 | 7.22° C | 86% | 1017 hPa | 0 mm | - | 0 W/m² | - |
| 1777869580 | 7.22° C | 86% | 1016.8 hPa | 0 mm | - | 0 W/m² | - |
| 1777869277 | 7.22° C | 85% | 1016.7 hPa | 0 mm | - | 0 W/m² | - |
| 1777868975 | 7.78° C | 82% | 1017.1 hPa | 0 mm | - | 0 W/m² | - |
| 1777868671 | 7.78° C | 80% | 1016.9 hPa | 0 mm | - | 0 W/m² | - |
| 1777868368 | 7.78° C | 81% | 1016.7 hPa | 0 mm | - | 0 W/m² | - |
| 1777868064 | 7.78° C | 81% | 1016.9 hPa | 0 mm | - | 0 W/m² | - |
| 1777867760 | 7.78° C | 81% | 1016.9 hPa | 0 mm | - | 0 W/m² | - |
| 1777867458 | 7.78° C | 80% | 1017 hPa | 0 mm | - | 0 W/m² | - |
| 1777867154 | 7.78° C | 77% | 1016.8 hPa | 0 mm | - | 0 W/m² | - |
| 1777866852 | 7.78° C | 76% | 1016.9 hPa | 0 mm | - | 0 W/m² | - |
| 1777866548 | 7.22° C | 77% | 1017.3 hPa | 0 mm | - | 0 W/m² | - |
| 1777866245 | 7.22° C | 76% | 1017.1 hPa | 0 mm | - | 0 W/m² | - |
| 1777865942 | 7.22° C | 77% | 1017.3 hPa | 0 mm | - | 0 W/m² | - |
| 1777865640 | 7.22° C | 78% | 1016.9 hPa | 0 mm | - | 0 W/m² | - |
| 1777865336 | 7.22° C | 76% | 1016.9 hPa | 0 mm | - | 0 W/m² | - |
| 1777865034 | 7.22° C | 78% | 1017.3 hPa | 0 mm | - | 0 W/m² | - |
| 1777864730 | 7.22° C | 77% | 1016.9 hPa | 0 mm | - | 0 W/m² | - |
* Rain latest hour (hover to see other rain measurements)
** Current wind speed in m/s (hover to see current wind gust speed)